Welcome to the New NWS' Forecast!
Most changes are behind the scenes, but click here for differences you might notice.

Regional Weather Roundup (RWR)

Issued by Gray - Portland, ME (GYX)

                            
312 
ASUS41 KGYX 192110
RWRGYX
WEATHER ROUNDUP FOR MAINE AND NEW HAMPSHIRE
NATIONAL WEATHER SERVICE GRAY ME
500 PM EDT SUN AUG 19 2018

MEZ002-005-006-010-012-015-018-020-021-024-026-027-029-192200-
MAINE
  
CITY           SKY/WX    TMP DP  RH WIND       PRES   REMARKS
PORTLAND       FAIR      72  59  63 E8G20     30.08S                  
SANFORD        FAIR      72  59  63 SE8       30.09R                  
BAR HARBOR     FAIR      75  58  55 NE10      30.07                   
WISCASSET      PTSUNNY   78  56  46 MISG      30.08R                  
ROCKLAND       FAIR      72  60  66 SE9       30.07S                  
FRYEBURG       FAIR      77  55  46 E9        30.08R                  
LEWISTONAUBURN   N/A     76  56  49 NE7       30.08R                  
AUGUSTA        FAIR      76  53  44 NE10      30.08S                  
WATERVILLE     FAIR      75  56  51 VRB5      30.06S                  
BANGOR         PTSUNNY   76  53  44 NE8       30.08S                  
GREENVILLE     NOT AVBL                                               
MILLINOCKET    FAIR      74  55  51 E9        30.11S                  
HOULTON        FAIR      72  55  55 E6        30.10S                  
PRESQUE ISLE   FAIR      73  52  47 NE3       30.13R                  
FRENCHVILLE    FAIR      73  51  46 SW3       30.12F                  
CARIBOU        FAIR      74  50  42 E5        30.11S                  
$$

NHZ002-005-008-009-011-012-014-192200-
NEW HAMPSHIRE
  
CITY           SKY/WX    TMP DP  RH WIND       PRES   REMARKS
PORTSMOUTH     MOSUNNY   70  58  65 E10       30.07R                  
ROCHESTER      FAIR      71  60  68 E10       30.08R                  
NASHUA         FAIR      75  60  59 SE9       30.07R                  
MANCHESTER     FAIR      74  59  59 E14       30.05R                  
CONCORD        FAIR      77  57  50 SE6       30.05R                  
LACONIA        FAIR      75  56  51 E10       30.07R                  
PLYMOUTH       FAIR      77  52  41 E7        30.05S                  
BERLIN         FAIR      76  54  46 SE6       30.09R                  
WHITEFIELD     FAIR      77  54  44 E10       30.07S                  
JAFFREY        FAIR      73  55  53 VRB3      30.09R                  
KEENE          FAIR     N/A N/A N/A CALM      30.06R                  
LEBANON        FAIR      79  56  45 S6        30.05S                  
MT WASHINGTON  NOT AVBL                                               
$$

VTZ005-007-008-192200-
VERMONT
  
CITY           SKY/WX    TMP DP  RH WIND       PRES   REMARKS
ST JOHNSBURY     N/A     79  52  38 MISG      30.04S                  
MONTPELIER     FAIR      76  56  49 VRB3      30.10S                  
BURLINGTON     PTSUNNY   79  59  50 W8        30.04R                  
$$

MAZ007-012-024-CTZ003-RIZ002-NYZ038-NYZ072-192200-
SOUTHERN NEW ENGLAND AND NY
  
CITY           SKY/WX    TMP DP  RH WIND       PRES   REMARKS
BOSTON         PTSUNNY   70  60  70 NE17      30.07R                  
WORCESTER      FAIR      70  55  59 NE10G20   30.08R                  
NANTUCKET      CLOUDY    68  65  90 NE17      29.99S                  
PROVIDENCE     PTSUNNY   71  57  61 NE22G29   30.05R                  
HARTFORD       PTSUNNY   76  56  49 NE12      30.03R                  
ALBANY         PTSUNNY   78  54  43 SE6       30.03S                  
NEW YORK CITY  CLOUDY    74  65  73 N8        30.00S                  
$$

ANZ081-ANZ082-ANZ150-NHZ014-MEZ023>029-192200-
COASTAL MARINE OBSERVATIONS
  
STATION/POSITION TIME  TEMP    WIND        PRES    WAVE
                       AIR SEA DIR/SP/G            HT/PER
                 (UTC) (F)     (DEG/KT/KT) (MB)    (FT/S)
MOUNT DESERT ROC 2100   62      40/ 18/ 19 1018.0R
MATINICUS ROCK   2000   62      60/ 13/ 14 1017.8R
ISLE OF SHOALS   2000   66      80/ 19/ 23 1017.2F
JEFFREYS LEDGE   2036      69                N/A     6/ 6
$$

.............KEY..............
   WCI - WIND CHILL
   TC  - TEMPERATURE IN CELSIUS
   VSB - VISIBILITY IN MILES
   HX  - HEAT INDEX
   FAIR- INDICATES FEW OR NO CLOUDS BELOW 12,000 FT, WITH NO 
         SIGNIFICANT WEATHER AND/OR OBSTRUCTIONS TO VISIBILITY.